Lid_Strength_Index
-1 -0 0 3 11 11 14 13 9 9 9 6 6 7 9 8 9 12 2 1 0 0 -0 -1 -2 -2 -2 -1 -1 -1 -2 -2 -2 -2 -1 -1 -2 -2 -2 -2 -2 -1 -2 -2 -2 -2 -2 -2 -2
-0 0 2 6 13 16 15 10 10 8 7 6 6 6 8 9 5 4 3 1 -0 -0 -0 -0 -2 -2 -2 -1 -1 -1 -2 -2 -2 -2 -1 -1 -1 -2 -1 -2 -2 -1 -1 -2 -2 -2 -2 -2 -2
0 1 7 10 12 16 14 10 9 7 6 6 7 5 6 8 4 3 1 0 -0 -0 -0 -0 -2 -2 -1 -2 -1 -2 -2 -2 -2 -2 -2 -2 -1 -2 -2 -1 -2 -1 -2 -1 -2 -2 -2 -2 -2
2 4 6 12 13 11 10 9 7 7 6 6 6 8 5 3 3 2 0 0 0 0 -0 -1 -2 -2 -2 -2 -1 -2 -2 -2 -2 -2 -2 -1 -2 -2 -2 -2 -2 -2 -2 -2 -2 -2 -2 -2 -2
2 6 11 12 12 9 8 7 6 7 7 7 6 8 7 3 1 1 1 0 1 0 -0 -0 -2 -2 -2 -2 -2 -1 -1 -1 -2 -2 -2 -2 -2 -2 -2 -2 -2 -2 -2 -2 -1 -2 -2 -2 -2
7 7 12 14 12 9 7 6 6 7 7 7 7 7 7 2 2 1 0 1 0 0 -0 -0 -1 -2 -2 -2 -2 -1 -1 -1 -2 -2 -2 -2 -2 -2 -2 -2 -2 -2 -2 -2 -2 -2 -2 -2 -1
8 10 12 11 11 10 8 5 7 7 7 7 5 9 6 4 2 1 1 0 0 -0 -0 -0 -0 -1 -2 -2 -2 -2 -2 -2 -1 -1 -1 -1 -2 -2 -2 -2 -2 -2 -2 -2 -2 -2 -1 -1 -1
6 9 11 11 11 11 7 6 5 6 7 4 4 9 8 4 1 1 1 1 0 0 0 0 0 0 0 0 -2 -2 -2 -2 -2 -1 -1 -1 -1 -2 -2 -2 -2 -2 -2 -1 -1 -1 -1 -1 -1
4 11 12 11 10 9 6 7 5 4 6 5 4 5 4 2 1 2 2 2 1 1 1 0 0 0 0 0 -0 -2 -2 -2 -2 -1 -1 -1 1 0 -1 -1 -2 -2 -2 -2 -1 -1 -1 -1 -1
8 11 10 7 7 8 6 6 6 6 7 6 6 4 3 2 3 3 3 3 3 2 1 0 0 -0 0 -0 0 0 -0 -0 -0 -0 -0 -0 -0 0 -1 -1 -2 -2 -2 -2 -1 -1 -1 -1 -0
7 9 7 6 5 6 6 6 5 7 8 7 7 5 4 3 3 3 3 3 2 2 1 0 0 0 0 0 0 0 0 -0 -0 -0 -0 -0 -1 -0 -0 0 0 -0 -1 0 -1 -0 -0 0 0
8 6 6 6 5 6 6 5 6 6 6 4 4 4 4 4 4 4 3 3 2 2 1 1 0 0 1 1 0 0 0 0 1 0 -0 -0 -0 -0 0 0 0 0 0 0 1 0 0 0 -0
7 6 5 5 5 5 5 6 6 6 4 4 4 4 4 4 4 3 3 3 2 2 1 1 1 2 1 0 0 0 0 -0 0 -0 0 -0 0 0 0 0 -0 0 -0 0 0 0 0 0 0
6 6 6 5 5 5 6 6 6 6 4 4 4 4 4 4 4 4 3 3 3 2 2 2 0 0 0 0 0 1 1 0 0 -0 0 -0 0 0 0 0 0 0 -0 -0 0 0 0 0 0
5 8 7 6 6 6 5 7 8 5 5 5 5 4 4 4 3 3 3 3 2 2 2 2 1 0 0 1 0 0 0 0 0 -0 -0 -0 -0 -0 0 -0 0 0 -0 0 0 0 -0 1 0
8 8 11 7 6 5 6 11 7 5 6 6 5 5 4 4 3 3 3 3 2 2 2 1 0 1 1 1 1 0 0 0 0 -0 -0 -0 -0 -0 0 -0 0 -0 -0 -0 0 0 1 1 1
10 13 12 10 7 7 8 11 7 5 6 6 6 5 5 4 4 3 3 2 2 3 3 1 1 1 1 0 1 1 0 0 -0 -0 -0 -0 -0 -0 -0 -0 0 -0 0 0 0 1 1 1 1
12 12 11 11 9 8 10 10 8 6 6 6 6 5 5 4 4 3 3 2 2 3 2 1 1 1 1 1 0 0 1 0 0 0 -0 -0 -0 -0 0 0 0 0 0 1 1 1 1 1 1
10 11 11 10 8 10 10 10 9 7 7 6 6 6 5 5 4 3 3 2 2 2 1 2 2 1 1 1 2 2 2 1 1 0 -0 -0 -0 -0 0 -0 0 1 0 1 1 1 1 1 1
10 11 12 10 8 10 10 11 8 8 7 7 6 6 5 5 5 3 3 2 2 2 2 2 1 1 1 1 1 2 2 1 2 1 -0 -0 -0 -0 -0 -0 0 0 1 2 1 1 2 2 1
10 11 12 11 10 9 11 12 10 8 7 6 6 5 5 5 5 4 3 3 2 2 2 2 1 1 1 1 1 1 0 1 3 2 2 2 0 -0 0 0 0 0 1 2 1 1 2 3 2
13 8 9 10 12 15 10 18 13 10 9 8 6 6 5 5 4 4 4 3 3 2 2 1 1 1 1 1 1 2 2 3 2 2 1 1 1 1 -0 0 0 1 1 1 2 1 1 2 3
10 8 9 10 11 13 13 16 14 10 11 9 7 6 6 5 5 4 4 3 2 2 2 1 1 1 1 1 1 2 3 2 2 2 1 2 1 0 1 1 1 1 3 4 3 3 2 1 2
6 9 10 11 13 18 13 14 15 13 11 9 7 6 5 6 5 4 3 3 2 2 2 1 2 2 1 1 1 2 2 3 5 4 2 1 1 1 0 1 2 1 1 1 2 2 2 1 1
9 11 16 18 19 17 13 14 13 10 8 7 7 6 5 5 5 4 4 3 3 3 2 2 2 2 1 1 1 1 2 3 4 4 2 2 1 1 1 0 2 2 1 1 1 1 1 1 2
12 13 15 17 18 16 14 15 11 8 6 6 5 6 6 6 6 4 4 3 3 3 2 2 2 2 2 1 1 1 2 1 2 2 2 2 1 1 0 0 2 2 2 0 1 1 1 1 1
12 14 12 14 16 15 14 12 9 8 7 6 7 6 6 6 5 5 3 3 3 3 2 2 2 2 2 2 1 1 1 1 2 2 2 2 1 1 0 1 1 2 2 2 1 1 1 1 1
10 10 13 15 17 18 14 15 14 10 9 8 7 6 6 6 5 5 4 3 3 2 2 2 2 2 2 1 1 1 1 2 4 3 2 2 3 2 2 1 1 1 2 2 1 1 1 1 1
12 12 13 14 15 17 16 15 9 9 8 8 7 6 6 6 5 5 4 3 3 2 2 2 2 2 2 2 1 1 1 2 3 3 3 3 3 2 1 0 2 2 3 3 1 1 1 2 2
11 10 13 16 16 17 16 14 9 7 7 6 6 5 4 5 5 4 4 3 3 3 2 2 2 2 2 1 1 1 1 2 3 3 3 3 3 2 2 2 2 3 4 3 1 1 1 2 2